Tracking 19575 objects as of 19-Feb-2019
HD Live streaming from Space Station
objects crossing your sky now

COSMOS 2256

Track COSMOS 2256 now!
10-day predictions
COSMOS 2256 is classified as:


NORAD ID: 22691
Int'l Code: 1993-038E
Perigee: 1,409.4 km
Apogee: 1,418.9 km
Inclination: 82.6 °
Period: 113.9 minutes
Semi major axis: 7785 km
RCS: 1.14 m2 (large)
Launch date: June 24, 1993
Source: Commonwealth of Independent States (former USSR) (CIS)
Launch site: PLESETSK MISSILE AND SPACE COMPLEX (PKMTR)
aabbcc
Your satellite tracking list
Your tracking list is empty




NASA's NSSDC Master Catalog

Two Line Element Set (TLE):
1 22691U 93038E   19049.80811703  .00000012  00000-0  93963-5 0  9992
2 22691  82.5753 124.5306 0006067 313.7328 179.1964 12.63871807184237
Source of the keplerian elements: AFSPC